Location: Newark
(34.1333°N, 7.9667°W)
Time: 15:09:39
(UTC+00:00)

Transit 2A - Pass Details

Date: 19 June 2021
Orbit: 598 x 960 km, 66.7° (Epoch: 23 July)

Event Time Altitude Azimuth Distance (km) Brightness Sun altitude
Rises 15:53:42 0° 183° (S) 2,906 9.0 45.3°
Reaches altitude 10° 15:56:11 10° 173° (S) 1,970 8.2 44.8°
Maximum altitude 16:00:04 31° 111° (ESE) 1,051 6.7 44.0°
Drops below altitude 10° 16:03:54 10° 48° (NE) 1,939 7.9 43.2°
Sets 16:06:18 0° 38° (NE) 2,852 8.7 42.7°
